Flag for U.S.A. Weather past 2 weeks in Baltimore, Maryland, U.S.A.

44 °F

Light rain. Fog.

Feels Like: 40 °F
Forecast: 44 / 51 °F
Wind: 8 mph from Northeast

Location: Baltimore-Washington International Airport

Current Time: Nov 30, 2015 at 9:51:03 PM

Latest Report: Nov 30, 2015 at 8:54 PM

Visibility: 5 mi

Pressure: 30.26 "Hg

Humidity: 89%

Dew point: 41 °F

Location of BaltimoreLocation

Historic Weather in Baltimore — Graph


Baltimore temperature yesterday

Maximum temperature yesterday: 52 °F (at 1:04 AM)
Minimum temperature yesterday: 42 °F (at 9:54 PM)
Average temperature yesterday: 46 °F

Past Weeks' High & Low Weather Summary

High69 °F (Nov 16, 12:54 PM)100% (Nov 19, 7:54 PM)30.79 "Hg (Nov 19, 7:54 PM)
Low29 °F (Nov 23, 8:54 PM)20% (Nov 20, 3:54 PM)29.89 "Hg (Nov 21, 11:54 PM)
Average48 °F67%30.30 "Hg
* Reported Nov 15 8:54 PM — Nov 30 8:54 PM, Baltimore, Weather by CustomWeather, © 2015

Note: Actual official high and low records may vary slightly from our data, if they occured in-between our weather recording intervals... More about our weather records


Baltimore weather history for previous 24 hours

Time TempWeatherWind HumidityBarometerVisibility
8:54 PM
Mon, Nov 30
44 °FLight rain. Fog.8 mph89%30.26 "Hg5 mi
7:54 PM43 °FLight rain. Fog.6 mph93%30.27 "Hg7 mi
6:54 PM42 °FDrizzle. Fog.9 mph96%30.28 "Hg5 mi
5:54 PM42 °FLight rain. Fog.10 mph92%30.29 "Hg5 mi
4:54 PM41 °FLight rain. Fog.9 mph96%30.30 "Hg2 mi
3:54 PM41 °FLight rain. Fog.8 mph96%30.30 "Hg1 mi
2:54 PM41 °FDrizzle. Fog.9 mph93%30.32 "Hg1 mi
1:54 PM40 °FDrizzle. Fog.8 mph93%30.32 "Hg1 mi
12:54 PM40 °FDrizzle. Overcast.10 mph83%30.33 "Hg9 mi
11:54 AM40 °FDrizzle. Overcast.9 mph77%30.36 "Hg7 mi
10:54 AM40 °FDrizzle. Mostly cloudy.9 mph70%30.37 "Hg8 mi
9:54 AM39 °FMore clouds than sun.9 mph67%30.38 "Hg10 mi
8:54 AM39 °FMostly cloudy.12 mph65%30.38 "Hg10 mi
7:54 AM38 °FMore clouds than sun.10 mph65%30.38 "Hg10 mi
6:54 AM38 °FOvercast.10 mph65%30.37 "Hg10 mi
5:54 AM39 °FMostly cloudy.7 mph62%30.35 "Hg10 mi
4:54 AM39 °FMostly cloudy.10 mph62%30.35 "Hg10 mi
3:54 AM40 °FMostly cloudy.12 mph58%30.35 "Hg10 mi
2:54 AM40 °FOvercast.10 mph60%30.35 "Hg10 mi
1:54 AM41 °FPassing clouds.12 mph58%30.35 "Hg10 mi
12:54 AM41 °FPassing clouds.13 mph60%30.34 "Hg10 mi
11:54 PM
Sun, Nov 29
42 °FMostly cloudy.10 mph60%30.32 "Hg10 mi
10:54 PM42 °FMostly cloudy.3 mph71%30.30 "Hg10 mi
9:54 PM42 °FMostly cloudy.5 mph76%30.29 "Hg10 mi
Weather by CustomWeather, © 2015

See weather overviewHow to use our weather pages